K0IMS Weather Reports


Display with metric or nautical units.
time (UTC)temp
F
wind
direction
speed
MPH
gust
MPH
rain 1hr
in
rain 24hr
in
rain mn
in
humidity
%
barometer
mb
20260502223017 65 248 1.0 3.0 0.00 0.00 0.00 26 1010.1
20260502222517 65 203 1.0 2.0 0.00 0.00 0.00 25 1010.1
20260502222016 65 0.0 1.0 0.00 0.00 0.00 26 1010.2
20260502221517 65 203 1.0 3.0 0.00 0.00 0.00 26 1010.2
20260502221017 65 248 2.0 6.0 0.00 0.00 0.00 25 1010.2
20260502220517 65 203 2.0 5.0 0.00 0.00 0.00 25 1010.3
20260502220016 65 225 3.0 6.0 0.00 0.00 0.00 24 1010.3
20260502215517 65 270 3.0 9.0 0.00 0.00 0.00 24 1010.4
20260502215017 66 270 3.0 7.0 0.00 0.00 0.00 24 1010.6
20260502214516 66 248 3.0 7.0 0.00 0.00 0.00 24 1010.6
20260502214017 66 248 1.0 6.0 0.00 0.00 0.00 25 1010.7
20260502213517 66 248 3.0 10.0 0.00 0.00 0.00 24 1010.8
20260502213017 66 225 3.0 7.0 0.00 0.00 0.00 24 1010.8
20260502212516 66 248 4.0 8.0 0.00 0.00 0.00 23 1010.9
20260502212016 67 248 4.0 10.0 0.00 0.00 0.00 24 1011.0
20260502211516 67 203 3.0 9.0 0.00 0.00 0.00 23 1011.1
20260502211016 68 293 2.0 8.0 0.00 0.00 0.00 23 1011.3
20260502210518 68 225 2.0 5.0 0.00 0.00 0.00 23 1011.3
20260502210017 68 225 5.0 9.0 0.00 0.00 0.00 23 1011.4
20260502205536 68 248 3.0 8.0 0.00 0.00 0.00 23 1011.5
20260502205018 68 203 2.0 7.0 0.00 0.00 0.00 24 1011.6
20260502204517 67 225 3.0 8.0 0.00 0.00 0.00 24 1011.6
20260502204017 67 203 3.0 9.0 0.00 0.00 0.00 23 1011.8
20260502203516 67 225 4.0 8.0 0.00 0.00 0.00 23 1012.0
20260502203017 67 225 4.0 11.0 0.00 0.00 0.00 23 1012.1
20260502202537 67 203 4.0 11.0 0.00 0.00 0.00 23 1012.1
20260502202016 66 203 3.0 8.0 0.00 0.00 0.00 23 1012.3
20260502201537 65 270 1.0 5.0 0.00 0.00 0.00 26 1012.4
20260502201016 65 248 2.0 5.0 0.00 0.00 0.00 25 1012.6
20260502200516 65 203 4.0 10.0 0.00 0.00 0.00 26 1012.6
20260502200017 64 203 5.0 9.0 0.00 0.00 0.00 25 1012.8
20260502195517 64 248 4.0 8.0 0.00 0.00 0.00 24 1012.9
20260502195037 65 225 4.0 10.0 0.00 0.00 0.00 24 1013.0
20260502194516 65 225 3.0 7.0 0.00 0.00 0.00 24 1013.0
20260502194016 64 225 2.0 7.0 0.00 0.00 0.00 26 1013.0
20260502193558 64 203 3.0 5.0 0.00 0.00 0.00 25 1013.2
20260502193016 63 203 3.0 6.0 0.00 0.00 0.00 27 1013.3
20260502192516 63 248 3.0 8.0 0.00 0.00 0.00 26 1013.3
20260502192016 62 203 4.0 9.0 0.00 0.00 0.00 25 1013.5
20260502191517 62 203 1.0 5.0 0.00 0.00 0.00 26 1013.6
20260502191037 62 203 3.0 5.0 0.00 0.00 0.00 26 1013.8
20260502190516 62 248 3.0 7.0 0.00 0.00 0.00 25 1013.7
20260502190036 62 225 3.0 6.0 0.00 0.00 0.00 25 1013.8
20260502185516 62 225 2.0 6.0 0.00 0.00 0.00 25 1013.9
20260502185036 62 203 4.0 12.0 0.00 0.00 0.00 27 1014.1
20260502184516 61 203 4.0 9.0 0.00 0.00 0.00 26 1014.1
20260502184036 61 248 4.0 8.0 0.00 0.00 0.00 26 1014.2
20260502183516 61 203 2.0 4.0 0.00 0.00 0.00 27 1014.3
20260502183016 61 203 2.0 5.0 0.00 0.00 0.00 27 1014.3
20260502182516 61 203 2.0 5.0 0.00 0.00 0.00 25 1014.6
20260502182016 61 203 3.0 6.0 0.00 0.00 0.00 25 1014.6
20260502181516 61 270 3.0 8.0 0.00 0.00 0.00 27 1014.7
20260502181017 61 225 3.0 7.0 0.00 0.00 0.00 25 1014.7
20260502180517 60 203 2.0 7.0 0.00 0.00 0.00 26 1014.8
20260502170516 58 225 3.0 7.0 0.00 0.00 0.00 27 1015.8
20260502164056 57 203 2.0 5.0 0.00 0.00 0.00 28 1016.3
20260502163516 57 248 3.0 7.0 0.00 0.00 0.00 28 1016.3
20260502163016 57 225 3.0 7.0 0.00 0.00 0.00 26 1016.4
20260502162537 57 203 2.0 6.0 0.00 0.00 0.00 30 1016.5
20260502162036 57 248 3.0 10.0 0.00 0.00 0.00 28 1016.5
20260502161516 56 338 2.0 5.0 0.00 0.00 0.00 30 1016.5
20260502161016 56 203 2.0 6.0 0.00 0.00 0.00 29 1016.6
20260502160536 56 225 3.0 7.0 0.00 0.00 0.00 27 1016.8
20260502152017 54 248 2.0 9.0 0.00 0.00 0.00 35 1017.2
20260502151537 54 248 3.0 7.0 0.00 0.00 0.00 33 1017.2
20260502151018 53 270 1.0 4.0 0.00 0.00 0.00 35 1017.2
20260502150537 53 225 2.0 6.0 0.00 0.00 0.00 36 1017.2
20260502130516 43 248 2.0 5.0 0.00 0.00 0.00 53 1017.9
20260502123517 40 248 1.0 4.0 0.00 0.00 0.00 61 1017.8
20260502123018 39 0.0 2.0 0.00 0.00 0.00 64 1017.7
20260502122536 39 270 1.0 4.0 0.00 0.00 0.00 64 1017.7
20260502122016 38 0.0 2.0 0.00 0.00 0.00 64 1017.7
20260502121517 38 248 1.0 3.0 0.00 0.00 0.00 65 1017.7
20260502121016 37 0.0 2.0 0.00 0.00 0.00 65 1017.6
20260502120517 37 0.0 2.0 0.00 0.00 0.00 66 1017.6
20260502115517 37 0.0 2.0 0.00 0.00 0.00 66 1017.7
20260502115017 37 270 1.0 2.0 0.00 0.00 0.00 66 1017.7
20260502114516 36 0.0 2.0 0.00 0.00 0.00 66 1017.7
20260502114037 36 0.0 2.0 0.00 0.00 0.00 66 1017.7
20260502113517 36 0.0 2.0 0.00 0.00 0.00 66 1017.6
20260502113016 36 248 1.0 2.0 0.00 0.00 0.00 66 1017.6
20260502112516 36 248 1.0 2.0 0.00 0.00 0.00 67 1017.7
20260502112016 35 248 1.0 2.0 0.00 0.00 0.00 67 1017.6
20260502111516 35 0.0 2.0 0.00 0.00 0.00 67 1017.5
20260502111017 35 0.0 2.0 0.00 0.00 0.00 67 1017.5
20260502110516 35 248 1.0 2.0 0.00 0.00 0.00 66 1017.5
20260502110016 35 0.0 2.0 0.00 0.00 0.00 65 1017.5
20260502105517 35 0.0 2.0 0.00 0.00 0.00 65 1017.4
20260502105016 36 0.0 2.0 0.00 0.00 0.00 64 1017.6
20260502104516 36 0.0 1.0 0.00 0.00 0.00 64 1017.5
20260502104016 36 0.0 2.0 0.00 0.00 0.00 63 1017.5
20260502103516 36 0.0 1.0 0.00 0.00 0.00 63 1017.5
20260502103016 37 0.0 2.0 0.00 0.00 0.00 62 1017.6
20260502102516 37 0.0 0.0 0.00 0.00 0.00 60 1017.7
20260502102038 37 0.0 0.0 0.00 0.00 0.00 60 1017.7
20260502101517 38 0.0 0.0 0.00 0.00 0.00 60 1017.7
20260502101036 38 0.0 0.0 0.00 0.00 0.00 59 1017.7
20260502100538 38 0.0 0.0 0.00 0.00 0.00 58 1017.7
20260502091517 39 248 1.0 3.0 0.00 0.00 0.00 56 1017.5
20260502091017 39 248 1.0 2.0 0.00 0.00 0.00 56 1017.4
20260502090516 39 248 1.0 3.0 0.00 0.00 0.00 56 1017.4
20260502071517 42 248 2.0 4.0 0.00 0.00 0.00 49 1017.5
20260502071016 42 248 1.0 3.0 0.00 0.00 0.00 50 1017.5
20260502070517 42 248 2.0 3.0 0.00 0.00 0.00 50 1017.5
20260502070016 41 248 1.0 4.0 0.00 0.00 0.00 50 1017.6
20260502065517 41 248 1.0 5.0 0.00 0.00 0.00 50 1017.6
20260502065016 41 248 1.0 5.0 0.00 0.00 0.00 50 1017.6
20260502064516 41 248 1.0 3.0 0.00 0.00 0.00 50 1017.6
20260502064015 41 0.0 2.0 0.00 0.00 0.00 49 1017.7
20260502063516 41 248 1.0 3.0 0.00 0.00 0.00 49 1017.7
20260502063015 42 248 1.0 2.0 0.00 0.00 0.00 49 1017.7
20260502062515 42 0.0 2.0 0.00 0.00 0.00 48 1017.7
20260502062015 42 0.0 2.0 0.00 0.00 0.00 47 1017.7
20260502061516 42 0.0 2.0 0.00 0.00 0.00 47 1017.7
20260502061016 42 0.0 2.0 0.00 0.00 0.00 47 1017.7
20260502060515 42 0.0 2.0 0.00 0.00 0.00 47 1017.8
20260502060015 43 0.0 2.0 0.00 0.00 0.00 47 1017.7
20260502055515 43 248 1.0 2.0 0.00 0.00 0.00 46 1017.8
20260502055016 43 0.0 2.0 0.00 0.00 0.00 46 1017.7
20260502054515 43 0.0 2.0 0.00 0.00 0.00 46 1017.8
20260502054015 43 0.0 2.0 0.00 0.00 0.00 47 1017.9
20260502053516 43 0.0 2.0 0.00 0.00 0.00 47 1017.9
20260502053015 43 0.0 2.0 0.00 0.00 0.00 46 1017.9
20260502052537 43 0.0 3.0 0.00 0.00 0.00 45 1017.8
20260502052017 43 0.0 2.0 0.00 0.00 0.00 45 1017.8
20260502051517 43 248 1.0 3.0 0.00 0.00 0.00 45 1017.8
20260502051037 43 0.0 2.0 0.00 0.00 0.00 45 1017.8
20260502050538 43 225 1.0 3.0 0.00 0.00 0.00 45 1017.8
20260502050016 43 270 1.0 4.0 0.00 0.00 0.00 45 1017.8
20260502045517 43 248 1.0 3.0 0.00 0.00 0.00 45 1017.8
20260502045017 43 248 1.0 2.0 0.00 0.00 0.00 46 1017.7
20260502044517 43 0.0 2.0 0.00 0.00 0.00 46 1017.6
20260502044017 43 0.0 2.0 0.00 0.00 0.00 46 1017.6
20260502043517 43 0.0 2.0 0.00 0.00 0.00 47 1017.6
20260502043017 43 0.0 1.0 0.00 0.00 0.00 47 1017.6
20260502042517 43 0.0 3.0 0.00 0.00 0.00 47 1017.7
20260502042017 43 0.0 1.0 0.00 0.00 0.00 47 1017.7
20260502041517 43 0.0 2.0 0.00 0.00 0.00 47 1017.7
20260502041018 43 0.0 2.0 0.00 0.00 0.00 46 1017.7
20260502040517 43 0.0 2.0 0.00 0.00 0.00 46 1017.7
20260502040017 43 0.0 1.0 0.00 0.00 0.00 46 1017.7
20260502035538 44 0.0 2.0 0.00 0.00 0.00 45 1017.7
20260502035017 44 0.0 2.0 0.00 0.00 0.00 45 1017.7
20260502034518 44 0.0 2.0 0.00 0.00 0.00 44 1017.7
20260502034018 44 0.0 2.0 0.00 0.00 0.00 44 1017.7
20260502033517 44 0.0 2.0 0.00 0.00 0.00 43 1017.7
20260502033017 45 0.0 2.0 0.00 0.00 0.00 42 1017.7
20260502032518 45 0.0 2.0 0.00 0.00 0.00 42 1017.7
20260502032017 45 0.0 2.0 0.00 0.00 0.00 40 1017.7
20260502031517 45 225 1.0 2.0 0.00 0.00 0.00 40 1017.7
20260502031017 45 0.0 2.0 0.00 0.00 0.00 40 1017.7
20260502030537 45 0.0 2.0 0.00 0.00 0.00 40 1017.7
20260502030017 45 0.0 1.0 0.00 0.00 0.00 40 1017.7
20260502025517 45 0.0 2.0 0.00 0.00 0.00 40 1017.7
20260502025037 46 0.0 2.0 0.00 0.00 0.00 40 1017.7
20260502024517 46 225 1.0 2.0 0.00 0.00 0.00 40 1017.7
20260502024038 46 248 1.0 4.0 0.00 0.00 0.00 40 1017.7
20260502023517 46 0.0 2.0 0.00 0.00 0.00 40 1017.7
20260502023017 46 0.0 0.0 0.00 0.00 0.00 39 1017.7
20260502022517 46 0.0 0.0 0.00 0.00 0.00 37 1017.6
20260502022017 47 0.0 0.0 0.00 0.00 0.00 37 1017.6
20260502021540 47 0.0 0.0 0.00 0.00 0.00 37 1017.6
20260502021017 48 0.0 1.0 0.00 0.00 0.00 36 1017.6
20260502020517 48 0.0 0.0 0.00 0.00 0.00 35 1017.5
20260502020016 48 0.0 0.0 0.00 0.00 0.00 34 1017.5
20260502015558 49 0.0 0.0 0.00 0.00 0.00 32 1017.4
20260502015058 49 0.0 2.0 0.00 0.00 0.00 30 1017.3
20260502014516 49 0.0 1.0 0.00 0.00 0.00 30 1017.2
20260502014016 50 0.0 0.0 0.00 0.00 0.00 29 1017.2
20260502013518 50 0.0 1.0 0.00 0.00 0.00 29 1017.1
20260502013038 51 0.0 0.0 0.00 0.00 0.00 28 1017.2
20260502012516 51 0.0 2.0 0.00 0.00 0.00 27 1017.2
20260502012017 51 0.0 2.0 0.00 0.00 0.00 27 1017.2
20260502011517 51 0.0 2.0 0.00 0.00 0.00 27 1017.1
20260502011016 52 0.0 2.0 0.00 0.00 0.00 27 1017.2
20260502010516 52 0.0 2.0 0.00 0.00 0.00 26 1017.2
20260502010016 52 0.0 2.0 0.00 0.00 0.00 25 1017.1
20260502005516 52 0.0 2.0 0.00 0.00 0.00 25 1017.1
20260502005017 53 0.0 2.0 0.00 0.00 0.00 25 1017.1
20260502004516 53 0.0 2.0 0.00 0.00 0.00 25 1017.1
20260502004017 53 0.0 2.0 0.00 0.00 0.00 25 1017.0
20260502003517 53 0.0 3.0 0.00 0.00 0.00 26 1017.1
20260502003116 53 0.0 2.0 0.00 0.00 0.00 25 1017.1
20260502002517 53 0.0 2.0 0.00 0.00 0.00 25 1017.1
20260502002016 53 315 1.0 3.0 0.00 0.00 0.00 24 1017.1
20260502001558 54 0.0 1.0 0.00 0.00 0.00 24 1017.1
20260502001018 54 0.0 2.0 0.00 0.00 0.00 26 1017.1
20260502000517 54 0.0 1.0 0.00 0.00 0.00 24 1017.1
20260502000016 54 0.0 1.0 0.00 0.00 0.00 22 1017.1
20260501235516 55 0.0 2.0 0.00 0.00 0.00 25 1017.1
20260501235016 55 0.0 1.0 0.00 0.00 0.00 22 1017.1
20260501234517 55 0 1.0 3.0 0.00 0.00 0.00 21 1017.2
20260501234016 56 23 2.0 4.0 0.00 0.00 0.00 21 1017.2
20260501233516 56 45 1.0 2.0 0.00 0.00 0.00 22 1017.2
20260501233016 56 0.0 2.0 0.00 0.00 0.00 24 1017.2
20260501232516 55 23 1.0 3.0 0.00 0.00 0.00 21 1017.1
20260501232016 55 0.0 2.0 0.00 0.00 0.00 23 1017.1
20260501231516 55 0.0 2.0 0.00 0.00 0.00 24 1017.1
20260501231016 55 270 1.0 4.0 0.00 0.00 0.00 22 1017.2
20260501230516 55 270 2.0 7.0 0.00 0.00 0.00 22 1017.2
20260501230016 56 315 1.0 5.0 0.00 0.00 0.00 20 1017.2
20260501225516 57 338 1.0 4.0 0.00 0.00 0.00 21 1017.2
20260501225016 57 293 1.0 4.0 0.00 0.00 0.00 19 1017.2
20260501224516 57 338 1.0 4.0 0.00 0.00 0.00 20 1017.3
20260501224137 57 270 1.0 4.0 0.00 0.00 0.00 24 1017.2
20260501223516 56 68 2.0 4.0 0.00 0.00 0.00 22 1017.2